STARLINK-31785, 60131

Orbit data source: Space-Track

STARLINK-31785, 60131 is a payload satellite owned by SpaceX/Seattle (US) in LEO that was launched on Mon, 24 Jun 2024 UTC via an FALCON 9 launch vehicle from the Air Force Western Test Range (AFWTR). Payload-class satellites include a variety of spacecraft equipped with specific instruments for various scientific and technological missions. These include communications satellites like Starlink; space stations such as the ISS; scientific satellites like the Hubble; Earth observation satellites from companies like Planet Labs, Umbra, and HawkEye 360; GPS; miniature CubeSats for education and research; and military/defense satellites.

Loading next visibility...
Identifier
60131, 2024-118U
Orbit
LEO
Country
Flag of USUS
Related business
Manufacturer
SpaceX/Seattle
Mission
Operational Commercial Communications
Bus & Motor
STARLINK V2M, Unknown motor
Mass
730 kg wet, ~700 kg dry
Launch date (UTC)
2024-06-24 (2 years ago)
Launch vehicle
FALCON 9
Launch site
Air Force Western Test Range (AFWTR)
Object type
Payload
Rocket body
Debris
Shape & HBR
Box + 2 Pan, 17.7 m
Radar Cross Section
33.884 m², Large (>1 m²)

Expand to show TLE details & history
Last TLE update: 21 hours ago

TLE from 21 hours ago
0 STARLINK-31785
1 60131U 24118U   26126.39562176 -.00010860  00000-0 -33821-3 0  9990
2 60131  53.1601 118.5222 0000841  77.7906 282.3190 15.31746901104534
Epoch: 2026-05-06T09:29Z
TLE epoch observation values (Epoch: 2026-05-06T09:29:41.720Z)
Latitude
0.00003°
Longitude
111.84167°
Altitude
471.378 km
Speed
7.632 km/s
True Right ascension
07h 54m 05s
True Declination
0° 00' 00"
Sunlit
Object was in daylight at epoch
Visualization orbit readout
Latitude
Unknown
Longitude
Unknown
Altitude
Unknown
Speed
Unknown
Apparent Right ascension
Unknown
Apparent Declination
Unknown
Sunlit
N/A
Visualization observer readout
Local Sidereal Time
14:44:04
Azimuth
Unknown
Elevation
Unknown
Doppler factor
Unknown
Orbital elements
Apogee altitude
471.433 km
Perigee altitude
470.281 km
Semi-major axis
6,848.994 km
Eccentricity
0.00008
Inclination
53.1601°
RAAN
118.5222°
Arg. of periapsis
77.7906°
True anomaly
282.30958°
Mean anomaly
282.319°
Eccentric anomaly
282.31429°
Mean motion
3.82916 °/min
Orbital period
94.02 mins
BSTAR
-0.00033821
Loading maneuver chart data...
Computing Atmospheric mass density...
Loading historical data...
Loading historical data...
Loading historical data...
Loading historical data...
Loading historical data...
Loading historical data...
Loading historical data...

Documentation

Showing up to 5 results
|